Weather History for PAGS - January, 2012

Change the Weather History Date:

Wednesday, January 11, 2012

  Actual Average Record
Temperature  
Mean Temperature 36 °F -  
Max Temperature 39 °F 28 °F 46 °F (1997)
Min Temperature 33 °F 19 °F -10 °F (1952)
Degree Days  
Heating Degree Days 29    
Moisture  
Dew Point 31 °F    
Average Humidity 80    
Maximum Humidity 87    
Minimum Humidity 70    
Precipitation  
Precipitation 0.00 in - - ()
Sea Level Pressure  
Sea Level Pressure 30.05 in    
Wind  
Wind Speed 17 mph (SE)    
Max Wind Speed 28 mph    
Max Gust Speed 34 mph    
Visibility 10 miles    
Events      
Averages and records for this station are not official NWS values.
T = Trace of Precipitation, MM = Missing Value Source: NWS Daily Summary

Daily Weather History Graph

Daily Weather History Graph

Search for Another Location

Airport or City:

Trip Planner

Search our weather history database for the weather conditions in past years. The results will help you decide how hot, cold, wet, or windy it might be!

Date:

Astronomy

Jan. 11, 2012 Rise Set
Actual Time 8:44 AM AKST 3:37 PM AKST
Civil Twilight 7:54 AM AKST 4:27 PM AKST
Nautical Twilight 7:02 AM AKST 5:19 PM AKST
Astronomical Twilight 6:14 AM AKST 6:07 PM AKST
Moon 7:38 PM AKST (1/11) 9:13 AM AKST (1/11)
Length of Visible Light 8h 33m
Length of Day
6h 53m
Waning Gibbous, 93% of the Moon is Illuminated
Jan 11
Waning Gibbous
Jan 16
Last Quarter
Jan 22
New
Jan 30
First Quarter
Feb 7
Full

Hourly Weather History & Observations

Time (AKST) Temp. Windchill Dew Point Humidity Pressure Visibility Wind Dir Wind Speed Gust Speed Precip Events Conditions
12:16 AM 33.8 °F 24.3 °F 30.2 °F 87% 30.20 in 5.0 mi ESE 13.8 mph - N/A   Overcast
12:36 AM 35.6 °F 26.2 °F 30.2 °F 81% 30.19 in 10.0 mi SE 15.0 mph 19.6 mph N/A   Mostly Cloudy
12:56 AM 35.6 °F 24.8 °F 28.4 °F 75% 30.18 in 10.0 mi SE 19.6 mph 25.3 mph N/A   Overcast
1:16 AM 35.6 °F 26.2 °F 28.4 °F 75% 30.17 in 10.0 mi SE 15.0 mph - N/A   Mostly Cloudy
1:36 AM 35.6 °F 25.5 °F 28.4 °F 75% 30.15 in 10.0 mi SE 17.3 mph 27.6 mph N/A   Mostly Cloudy
1:56 AM 35.6 °F 25.5 °F 28.4 °F 75% 30.15 in 10.0 mi SE 17.3 mph 21.9 mph N/A   Overcast
2:16 AM 35.6 °F 24.5 °F 28.4 °F 75% 30.14 in 10.0 mi SE 20.7 mph 25.3 mph N/A   Overcast
2:36 AM 35.6 °F 25.5 °F 28.4 °F 75% 30.13 in 10.0 mi SE 17.3 mph 25.3 mph N/A   Overcast
2:56 AM 35.6 °F 26.6 °F 30.2 °F 81% 30.12 in 9.0 mi SE 13.8 mph 20.7 mph N/A   Overcast
3:16 AM 37.4 °F 29.3 °F 28.4 °F 70% 30.11 in 10.0 mi SE 12.7 mph 24.2 mph N/A   Overcast
3:36 AM 37.4 °F 25.9 °F 28.4 °F 70% 30.11 in 10.0 mi SE 25.3 mph 34.5 mph N/A   Overcast
3:56 AM 37.4 °F 27.2 °F 28.4 °F 70% 30.09 in 10.0 mi SE 19.6 mph - N/A   Overcast
4:16 AM 35.6 °F 24.5 °F 28.4 °F 75% 30.08 in 10.0 mi SE 20.7 mph 25.3 mph N/A   Overcast
4:36 AM 35.6 °F 25.2 °F 28.4 °F 75% 30.07 in 10.0 mi SE 18.4 mph 28.8 mph N/A   Overcast
4:56 AM 35.6 °F 24.5 °F 30.2 °F 81% 30.05 in 10.0 mi SE 20.7 mph 26.5 mph N/A   Overcast
5:16 AM 35.6 °F 24.5 °F 30.2 °F 81% 30.04 in 10.0 mi SE 20.7 mph 27.6 mph N/A   Overcast
5:36 AM 35.6 °F 25.5 °F 30.2 °F 81% 30.04 in 10.0 mi SE 17.3 mph 27.6 mph N/A   Overcast
5:56 AM 35.6 °F 24.8 °F 30.2 °F 81% 30.03 in 10.0 mi SE 19.6 mph 27.6 mph N/A   Overcast
6:16 AM 35.6 °F 23.2 °F 30.2 °F 81% 30.03 in 10.0 mi SE 26.5 mph 33.4 mph N/A   Overcast
6:36 AM 35.6 °F 23.4 °F 30.2 °F 81% 30.01 in 10.0 mi SE 25.3 mph 32.2 mph N/A   Overcast
6:56 AM 35.6 °F 23.4 °F 30.2 °F 81% 30.00 in 6.0 mi SE 25.3 mph 34.5 mph N/A   Overcast
7:16 AM 35.6 °F 24.5 °F 30.2 °F 81% 30.01 in 5.0 mi SE 20.7 mph 26.5 mph N/A   Overcast
7:36 AM 33.8 °F 21.9 °F 30.2 °F 87% 30.00 in 6.0 mi SE 21.9 mph 27.6 mph N/A   Overcast
7:56 AM 35.6 °F 24.0 °F 30.2 °F 81% 30.00 in 9.0 mi SE 23.0 mph 29.9 mph N/A   Overcast
8:16 AM 35.6 °F 25.2 °F 30.2 °F 81% 30.00 in 10.0 mi SE 18.4 mph 27.6 mph N/A   Overcast
8:36 AM 35.6 °F 24.2 °F 30.2 °F 81% 29.97 in 10.0 mi SE 21.9 mph 32.2 mph N/A   Overcast
8:56 AM 35.6 °F 23.0 °F 30.2 °F 81% 29.98 in 10.0 mi SE 27.6 mph 33.4 mph N/A   Overcast
9:16 AM 35.6 °F 23.7 °F 30.2 °F 81% 29.99 in 10.0 mi SE 24.2 mph 33.4 mph N/A   Overcast
9:36 AM 37.4 °F 26.4 °F 30.2 °F 75% 29.99 in 10.0 mi SE 23.0 mph 31.1 mph N/A   Overcast
9:56 AM 37.4 °F 26.4 °F 30.2 °F 75% 30.00 in 10.0 mi SE 23.0 mph 32.2 mph N/A   Overcast
10:16 AM 37.4 °F 25.9 °F 30.2 °F 75% 30.01 in 10.0 mi SE 25.3 mph 32.2 mph N/A   Overcast
10:36 AM 37.4 °F 26.6 °F 30.2 °F 75% 30.02 in 10.0 mi SE 21.9 mph 33.4 mph N/A   Overcast
10:56 AM 37.4 °F 26.4 °F 30.2 °F 75% 30.02 in 10.0 mi SE 23.0 mph 28.8 mph N/A   Overcast
11:16 AM 37.4 °F 26.4 °F 30.2 °F 75% 30.02 in 10.0 mi SE 23.0 mph 32.2 mph N/A   Overcast
11:36 AM 37.4 °F 27.5 °F 32.0 °F 81% 30.02 in 10.0 mi SE 18.4 mph 26.5 mph N/A   Overcast
11:56 AM 37.4 °F 27.5 °F 32.0 °F 81% 30.04 in 10.0 mi SE 18.4 mph 24.2 mph N/A   Overcast
12:16 PM 37.4 °F 28.5 °F 32.0 °F 81% 30.04 in 10.0 mi SE 15.0 mph 23.0 mph N/A   Overcast
12:36 PM 37.4 °F 28.9 °F 32.0 °F 81% 30.05 in 10.0 mi SE 13.8 mph 20.7 mph N/A   Overcast
12:56 PM 37.4 °F 28.5 °F 32.0 °F 81% 30.05 in 10.0 mi ESE 15.0 mph - N/A   Overcast
1:16 PM 37.4 °F 29.8 °F 33.8 °F 87% 30.05 in 10.0 mi ESE 11.5 mph - N/A   Overcast
1:36 PM 37.4 °F 29.8 °F 33.8 °F 87% 30.06 in 10.0 mi ESE 11.5 mph 17.3 mph N/A   Overcast
1:56 PM 37.4 °F 29.8 °F 33.8 °F 87% 30.05 in 10.0 mi SE 11.5 mph - N/A   Overcast
2:16 PM 37.4 °F 29.8 °F 33.8 °F 87% 30.04 in 10.0 mi ESE 11.5 mph - N/A   Overcast
2:36 PM 37.4 °F 31.4 °F 33.8 °F 87% 30.04 in 10.0 mi SE 8.1 mph - N/A   Overcast
2:56 PM 37.4 °F 29.8 °F 33.8 °F 87% 30.04 in 10.0 mi ESE 11.5 mph - N/A   Overcast
3:16 PM 39.2 °F 32.5 °F 33.8 °F 81% 30.05 in 10.0 mi ESE 10.4 mph - N/A   Overcast
3:36 PM 37.4 °F 30.8 °F 33.8 °F 87% 30.04 in 10.0 mi SE 9.2 mph - N/A   Overcast
3:56 PM 37.4 °F 29.8 °F 33.8 °F 87% 30.03 in 10.0 mi SE 11.5 mph - N/A   Overcast
4:16 PM 39.2 °F 32.0 °F 33.8 °F 81% 30.04 in 10.0 mi SE 11.5 mph - N/A   Overcast
4:36 PM 39.2 °F 31.2 °F 33.8 °F 81% 30.03 in 10.0 mi SE 13.8 mph 18.4 mph N/A   Overcast
4:56 PM 39.2 °F 31.2 °F 33.8 °F 81% 30.02 in 10.0 mi SSE 13.8 mph 19.6 mph N/A   Overcast
5:16 PM 39.2 °F 30.2 °F 33.8 °F 81% 30.02 in 10.0 mi SSE 17.3 mph 21.9 mph N/A   Overcast
5:36 PM 39.2 °F 31.6 °F 33.8 °F 81% 30.02 in 10.0 mi SSE 12.7 mph 18.4 mph N/A   Overcast
5:56 PM 39.2 °F 31.6 °F 33.8 °F 81% 30.02 in 10.0 mi SSE 12.7 mph - N/A   Overcast
6:16 PM 39.2 °F 33.6 °F 33.8 °F 81% 30.01 in 10.0 mi ESE 8.1 mph - N/A   Overcast
6:36 PM 37.4 °F 33.8 °F 35.6 °F 93% 30.00 in 10.0 mi East 4.6 mph - N/A   Overcast
6:56 PM 39.2 °F 35.0 °F 35.6 °F 87% 29.99 in 10.0 mi SE 5.8 mph - N/A   Overcast
7:16 PM 39.2 °F 34.2 °F 35.6 °F 87% 29.98 in 10.0 mi SSE 6.9 mph - N/A   Overcast
7:36 PM 39.2 °F 35.9 °F 33.8 °F 81% 29.97 in 10.0 mi SE 4.6 mph - N/A   Overcast
7:56 PM 37.4 °F - 33.8 °F 87% 29.96 in 10.0 mi Calm Calm - N/A   Overcast
8:16 PM 39.2 °F 34.2 °F 35.6 °F 87% 29.95 in 10.0 mi ESE 6.9 mph - N/A   Overcast
8:36 PM 37.4 °F - 33.8 °F 87% 29.94 in 10.0 mi Calm Calm - N/A   Overcast
8:56 PM 39.2 °F 31.6 °F 33.8 °F 81% 29.93 in 10.0 mi SSE 12.7 mph - N/A   Overcast
9:16 PM 41.0 °F 33.5 °F 33.8 °F 76% 29.92 in 10.0 mi SE 13.8 mph 24.2 mph N/A   Overcast
9:36 PM 41.0 °F 32.5 °F 33.8 °F 76% 29.91 in 10.0 mi SE 17.3 mph 20.7 mph N/A   Overcast
9:56 PM 41.0 °F 31.9 °F 33.8 °F 76% 29.90 in 10.0 mi SE 19.6 mph 25.3 mph N/A   Overcast
10:16 PM 39.2 °F 28.7 °F 33.8 °F 81% 29.89 in 9.0 mi SE 23.0 mph 26.5 mph N/A   Overcast
10:36 PM 37.4 °F 28.5 °F 33.8 °F 87% 29.88 in 9.0 mi SSE 15.0 mph 24.2 mph N/A   Overcast
10:56 PM 37.4 °F 28.2 °F 33.8 °F 87% 29.87 in 10.0 mi SE 16.1 mph 28.8 mph N/A   Overcast
11:16 PM 37.4 °F 28.5 °F 33.8 °F 87% 29.86 in 10.0 mi SE 15.0 mph - N/A   Overcast
11:36 PM 37.4 °F 28.5 °F 33.8 °F 87% 29.85 in 10.0 mi SE 15.0 mph 20.7 mph N/A   Overcast
11:56 PM 37.4 °F 29.3 °F 33.8 °F 87% 29.84 in 10.0 mi SE 12.7 mph - N/A   Overcast